Location: Dappach
(48.9767°N, 9.6998°E)
Time: 09:00:51
(UTC+00:00)

Cosmos 1741 Rocket - Pass Details

Date: 23 May 2024
Orbit: 758 x 781 km, 74.0° (Epoch: 15 June)

Event Time Altitude Azimuth Distance (km) Brightness Sun altitude
Exits shadow 01:51:21 18° 218° (SW) 1,826 5.3 -12.5°
Maximum altitude 01:55:15 63° 297° (WNW) 855 4.2 -12.1°
Drops below altitude 10° 02:00:30 10° 18° (NNE) 2,325 7.7 -11.5°
Sets 02:02:55 0° 22° (NNE) 3,260 8.9 -11.3°
